• In Germany
  • List of Countries
  • For 7 days
  • Water Temperature
  • Satellite Maps
  • Weather Map
  • Weather Widgets
  • user-avatar
    Login

    Hourly Weather Wyszków

    Today, 23 October, Monday

    Time Temperature Precipitation Wind Pressure Humidity
    00:00 +7°C° 0.1 mm 3 mps 751 mmHg 87%
    01:00 +7°C° 0.1 mm 3 mps 751 mmHg 88%
    02:00 +7°C° 0.1 mm 2 mps 751 mmHg 88%
    03:00 +7°C° 0.1 mm 2 mps 751 mmHg 89%
    04:00 +7°C° 0.1 mm 2 mps 750 mmHg 90%
    05:00 +7°C° 0.1 mm 2 mps 751 mmHg 90%
    06:00 +7°C° 0.1 mm 2 mps 751 mmHg 90%
    07:00 +7°C° 0.1 mm 2 mps 751 mmHg 90%
    08:00 +7°C° 0.2 mm 2 mps 751 mmHg 88%
    09:00 +7°C° 0.2 mm 2 mps 751 mmHg 87%
    10:00 +7°C° 0.2 mm 2 mps 751 mmHg 86%
    11:00 +8°C° 0.2 mm 3 mps 751 mmHg 85%
    12:00 +8°C° 0.2 mm 3 mps 752 mmHg 84%
    13:00 +8°C° 0.2 mm 3 mps 752 mmHg 83%
    14:00 +8°C° 0.3 mm 3 mps 752 mmHg 84%
    15:00 +8°C° 0.3 mm 3 mps 752 mmHg 85%
    16:00 +7°C° 0.3 mm 3 mps 753 mmHg 86%
    17:00 +7°C° 0.2 mm 3 mps 753 mmHg 86%
    18:00 +7°C° 0.2 mm 3 mps 754 mmHg 86%
    19:00 +5°C° 0.2 mm 4 mps 754 mmHg 86%
    20:00 +5°C° 0.1 mm 3 mps 755 mmHg 86%
    21:00 +5°C° 0.1 mm 3 mps 755 mmHg 85%
    22:00 +5°C° 0.1 mm 3 mps 756 mmHg 84%
    23:00 +4°C° 0 mm 3 mps 756 mmHg 84%

    Tomorrow, 24 October, Tuesday

    Time Temperature Precipitation Wind Pressure Humidity
    00:00 +4°C° 0 mm 3 mps 757 mmHg 83%
    01:00 +4°C° 0 mm 3 mps 757 mmHg 82%
    02:00 +3°C° 0 mm 3 mps 758 mmHg 83%
    03:00 +3°C° 0 mm 3 mps 758 mmHg 84%
    04:00 +2°C° 0 mm 3 mps 758 mmHg 84%
    05:00 +2°C° 0 mm 3 mps 759 mmHg 85%
    06:00 +3°C° 0 mm 2 mps 760 mmHg 85%
    07:00 +2°C° 0 mm 2 mps 760 mmHg 86%
    08:00 +3°C° 0 mm 3 mps 761 mmHg 80%
    09:00 +4°C° 0 mm 3 mps 761 mmHg 74%
    10:00 +5°C° 0 mm 3 mps 761 mmHg 68%
    11:00 +7°C° 0 mm 3 mps 761 mmHg 65%
    12:00 +8°C° 0 mm 3 mps 761 mmHg 62%
    13:00 +9°C° 0 mm 3 mps 761 mmHg 59%
    14:00 +8°C° 0 mm 2 mps 761 mmHg 62%
    15:00 +7°C° 0 mm 2 mps 761 mmHg 65%
    16:00 +7°C° 0 mm 2 mps 762 mmHg 68%
    17:00 +6°C° 0 mm 2 mps 762 mmHg 71%
    18:00 +5°C° 0 mm 2 mps 762 mmHg 73%
    19:00 +5°C° 0 mm 2 mps 762 mmHg 76%
    20:00 +4°C° 0 mm 2 mps 763 mmHg 77%
    21:00 +4°C° 0 mm 2 mps 763 mmHg 78%
    22:00 +3°C° 0 mm 3 mps 763 mmHg 79%
    23:00 +4°C° 0 mm 2 mps 763 mmHg 80%

    Day after tomorrow, 25 October, Wednesday

    Time Temperature Precipitation Wind Pressure Humidity
    00:00 +4°C° 0 mm 2 mps 763 mmHg 81%
    01:00 +3°C° 0 mm 2 mps 763 mmHg 82%
    02:00 +2°C° 0 mm 3 mps 763 mmHg 82%
    03:00 +2°C° 0 mm 3 mps 762 mmHg 82%
    04:00 +2°C° 0 mm 3 mps 762 mmHg 83%
    05:00 +2°C° 0 mm 3 mps 762 mmHg 82%
    06:00 +1°C° 0 mm 4 mps 762 mmHg 81%
    07:00 +1°C° 0 mm 4 mps 762 mmHg 80%
    08:00 +4°C° 0.1 mm 4 mps 762 mmHg 75%
    09:00 +5°C° 0.1 mm 5 mps 762 mmHg 69%
    10:00 +6°C° 0.1 mm 5 mps 761 mmHg 64%
    11:00 +6°C° 0.8 mm 5 mps 761 mmHg 66%
    12:00 +6°C° 0.8 mm 5 mps 761 mmHg 69%
    13:00 +6°C° 0.8 mm 5 mps 760 mmHg 72%
    14:00 +6°C° 0.5 mm 5 mps 760 mmHg 75%
    15:00 +6°C° 0.5 mm 5 mps 759 mmHg 77%
    16:00 +6°C° 0.5 mm 5 mps 759 mmHg 80%
    17:00 +6°C° 0.1 mm 5 mps 759 mmHg 80%
    18:00 +6°C° 0.1 mm 5 mps 758 mmHg 80%
    19:00 +7°C° 0.1 mm 5 mps 758 mmHg 81%
    20:00 +7°C° 0.2 mm 5 mps 758 mmHg 83%
    21:00 +7°C° 0.2 mm 5 mps 757 mmHg 86%
    22:00 +8°C° 0.2 mm 5 mps 757 mmHg 88%
    23:00 +8°C° 0.5 mm 5 mps 757 mmHg 91%

    26 October, Thursday

    Time Temperature Precipitation Wind Pressure Humidity
    00:00 +10°C° 0.5 mm 4 mps 757 mmHg 93%
    01:00 +11°C° 0.5 mm 4 mps 757 mmHg 95%
    02:00 +11°C° 0 mm 4 mps 757 mmHg 96%
    03:00 +11°C° 0 mm 3 mps 757 mmHg 96%
    04:00 +11°C° 0 mm 3 mps 757 mmHg 97%
    05:00 +11°C° 0 mm 3 mps 757 mmHg 97%
    06:00 +11°C° 0 mm 3 mps 757 mmHg 97%
    07:00 +11°C° 0 mm 3 mps 757 mmHg 97%
    08:00 +11°C° 0 mm 4 mps 757 mmHg 93%
    09:00 +12°C° 0 mm 4 mps 756 mmHg 90%
    10:00 +12°C° 0 mm 5 mps 756 mmHg 86%
    11:00 +13°C° 0 mm 5 mps 756 mmHg 83%
    12:00 +13°C° 0 mm 5 mps 756 mmHg 81%
    13:00 +14°C° 0 mm 6 mps 755 mmHg 78%
    14:00 +13°C° 0 mm 5 mps 755 mmHg 79%
    15:00 +13°C° 0 mm 4 mps 755 mmHg 81%
    16:00 +12°C° 0 mm 4 mps 754 mmHg 83%
    17:00 +12°C° 0 mm 4 mps 754 mmHg 85%
    18:00 +11°C° 0 mm 4 mps 754 mmHg 87%
    19:00 +11°C° 0 mm 4 mps 754 mmHg 89%
    20:00 +11°C° 0 mm 4 mps 754 mmHg 89%
    21:00 +10°C° 0 mm 4 mps 753 mmHg 90%
    22:00 +10°C° 0 mm 4 mps 753 mmHg 90%
    23:00 +10°C° 0 mm 4 mps 753 mmHg 91%

    27 October, Friday

    Time Temperature Precipitation Wind Pressure Humidity
    00:00 +10°C° 0 mm 3 mps 752 mmHg 93%
    01:00 +10°C° 0 mm 3 mps 752 mmHg 94%
    02:00 +10°C° 0 mm 3 mps 751 mmHg 94%
    03:00 +9°C° 0 mm 3 mps 751 mmHg 94%
    04:00 +9°C° 0 mm 3 mps 750 mmHg 94%
    05:00 +9°C° 0 mm 3 mps 750 mmHg 93%
    06:00 +9°C° 0 mm 3 mps 749 mmHg 93%
    07:00 +8°C° 0 mm 4 mps 749 mmHg 93%
    08:00 +10°C° 0.1 mm 4 mps 749 mmHg 89%
    09:00 +9°C° 0.1 mm 5 mps 748 mmHg 85%
    10:00 +10°C° 0.1 mm 5 mps 748 mmHg 81%
    11:00 +10°C° 0.2 mm 6 mps 747 mmHg 79%
    12:00 +10°C° 0.2 mm 6 mps 747 mmHg 77%
    13:00 +10°C° 0.2 mm 7 mps 746 mmHg 74%
    14:00 +10°C° 0.1 mm 6 mps 746 mmHg 76%
    15:00 +9°C° 0.1 mm 6 mps 746 mmHg 77%
    16:00 +9°C° 0.1 mm 5 mps 745 mmHg 78%
    17:00 +8°C° 0 mm 5 mps 745 mmHg 80%
    18:00 +8°C° 0 mm 5 mps 745 mmHg 81%
    19:00 +8°C° 0 mm 5 mps 745 mmHg 83%
    20:00 +8°C° 0.1 mm 5 mps 744 mmHg 84%
    21:00 +8°C° 0.1 mm 6 mps 744 mmHg 85%
    22:00 +8°C° 0.1 mm 6 mps 744 mmHg 86%
    23:00 +8°C° 0.1 mm 6 mps 744 mmHg 87%

    28 October, Saturday

    Time Temperature Precipitation Wind Pressure Humidity
    00:00 +8°C° 0.1 mm 5 mps 743 mmHg 87%
    01:00 +8°C° 0.1 mm 5 mps 743 mmHg 88%
    02:00 +7°C° 0.1 mm 5 mps 743 mmHg 87%
    03:00 +7°C° 0.1 mm 5 mps 743 mmHg 87%
    04:00 +7°C° 0.1 mm 5 mps 743 mmHg 87%
    05:00 +7°C° 0.1 mm 5 mps 743 mmHg 87%
    06:00 +7°C° 0.1 mm 5 mps 742 mmHg 87%
    07:00 +6°C° 0.1 mm 5 mps 742 mmHg 87%
    08:00 +7°C° 0.4 mm 5 mps 742 mmHg 85%
    09:00 +7°C° 0.4 mm 5 mps 742 mmHg 83%
    10:00 +7°C° 0.4 mm 5 mps 742 mmHg 81%
    11:00 +8°C° 0.2 mm 5 mps 741 mmHg 80%
    12:00 +8°C° 0.2 mm 5 mps 741 mmHg 79%
    13:00 +8°C° 0.2 mm 5 mps 741 mmHg 78%
    14:00 +8°C° 0.1 mm 4 mps 741 mmHg 79%
    15:00 +9°C° 0.1 mm 3 mps 741 mmHg 80%
    16:00 +9°C° 0.1 mm 3 mps 741 mmHg 81%
    17:00 +8°C° 0 mm 2 mps 741 mmHg 84%
    18:00 +8°C° 0 mm 2 mps 742 mmHg 87%
    19:00 +7°C° 0 mm 2 mps 742 mmHg 90%
    20:00 +8°C° 0 mm 1 mps 743 mmHg 90%
    21:00 +8°C° 0 mm 1 mps 743 mmHg 91%
    22:00 +7°C° 0 mm 1 mps 744 mmHg 92%
    23:00 +7°C° 0 mm 1 mps 744 mmHg 92%

    29 October, Sunday

    Time Temperature Precipitation Wind Pressure Humidity
    00:00 +7°C° 0 mm 1 mps 745 mmHg 93%
    01:00 +7°C° 0 mm 1 mps 745 mmHg 93%
    02:00 +6°C° 0 mm 2 mps 746 mmHg 94%
    03:00 +5°C° 0 mm 2 mps 746 mmHg 94%
    04:00 +5°C° 0 mm 2 mps 746 mmHg 95%
    05:00 +5°C° 0 mm 2 mps 747 mmHg 95%
    06:00 +4°C° 0 mm 3 mps 747 mmHg 95%
    07:00 +4°C° 0 mm 3 mps 748 mmHg 95%
    08:00 +5°C° 0 mm 3 mps 748 mmHg 91%
    09:00 +7°C° 0 mm 3 mps 748 mmHg 87%
    10:00 +7°C° 0 mm 4 mps 749 mmHg 83%
    11:00 +7°C° 0 mm 4 mps 748 mmHg 81%
    12:00 +8°C° 0 mm 5 mps 748 mmHg 79%
    13:00 +8°C° 0 mm 5 mps 748 mmHg 76%
    14:00 +8°C° 0 mm 5 mps 747 mmHg 77%
    15:00 +7°C° 0 mm 5 mps 747 mmHg 78%
    16:00 +7°C° 0 mm 5 mps 747 mmHg 79%
    17:00 +7°C° 0.1 mm 6 mps 746 mmHg 81%
    18:00 +7°C° 0.1 mm 6 mps 746 mmHg 82%
    19:00 +7°C° 0.1 mm 6 mps 745 mmHg 84%
    20:00 +7°C° 0.1 mm 6 mps 744 mmHg 85%
    21:00 +7°C° 0.1 mm 6 mps 744 mmHg 86%
    22:00 +8°C° 0.1 mm 6 mps 743 mmHg 87%
    23:00 +8°C° 0.1 mm 6 mps 743 mmHg 85%
    Show more